Regional Weather Roundup
Issued by NWS

Home | Current Version | Previous Version | Text Only | Print | Product List | Glossary Off
Versions: 1 2 3 4 5 6 7 8 9 10 11 12 13 14 15 16 17 18 19 20 21 22 23 24 25 26 27 28 29 30 31 32 33 34 35 36 37 38 39 40 41 42 43 44 45 46 47 48 49 50

000
ASUS43 KBIS 060802
RWRND

NORTH DAKOTA REGIONAL WEATHER ROUNDUP
NATIONAL WEATHER SERVICE BISMARCK ND
200 AM CST TUE DEC 06 2016

NOTE: "FAIR" INDICATES FEW OR NO CLOUDS BELOW 12,000 FEET WITH NO
SIGNIFICANT WEATHER AND/OR OBSTRUCTIONS TO VISIBILITY.


NDZ001>003-009>011-017-060900-
NORTHWEST NORTH DAKOTA

CITY           SKY/WX    TMP DP  RH WIND       PRES   REMARKS
WILLISTON      LGT SNOW   9   3  77 NW22G35   29.95S VSB 1   WCI -11
MINOT          SNOW      17  14  88 NW32G40   29.70R VSB 1/2 WCI  -3
$$

NDZ018>021-031>035-040>046-060900-
SOUTHWEST NORTH DAKOTA

CITY           SKY/WX    TMP DP  RH WIND       PRES   REMARKS
BISMARCK       SNOW      14  12  92 NW31G44   29.70R VSB 1/2 WCI  -7
DICKINSON      MIX PCPN   5   0  79 NW32G39   29.82S WCI -20
GARRISON         N/A     13  10  88 NW36G48   29.70R WCI -10
HETTINGER ARPT CLOUDY     6   1  80 NW32      29.85S WCI -18
$$

NDZ004>008-012>016-024-026-027-054-060900-
NORTHEAST NORTH DAKOTA

CITY           SKY/WX    TMP DP  RH WIND       PRES   REMARKS
GRAND FORKS    CLOUDY    30  28  92 N20       29.34F FOG     WCI  17
GRND FRKS AFB  LGT SNOW  28  28 100 N23       29.35F VSB 1   WCI  14
DEVILS LAKE    LGT SNOW  26  24  92 N24G32    29.46S FOG     WCI  11
$$

NDZ022-023-025-028>030-036>039-047>053-060900-
SOUTHEAST NORTH DAKOTA

CITY           SKY/WX    TMP DP  RH WIND       PRES   REMARKS
FARGO          CLOUDY    25  20  81 SW18      29.45R WCI  11
JAMESTOWN      LGT SNOW  24  22  91 W23G30    29.46S VSB 3/4 WCI   9
$$





USA.gov is the U.S. government's official web portal to all federal, state and local government web resources and services.